Location: Obersdorf
(47.4079°N, 10.2781°E)
Time: 06:52:16
(UTC+01:00)

AO-109 - Pass Details

Date: 29 November 2021
Orbit: 478 x 515 km, 60.7° (Epoch: 22 January)

Event Time Altitude Azimuth Distance (km) Brightness Sun altitude
Exits shadow 05:50:51 15° 354° (N) 1,361 ? -18.3°
Maximum altitude 05:52:22 19° 25° (NNE) 1,197 ? -18.1°
Drops below altitude 10° 05:55:06 10° 73° (ENE) 1,656 ? -17.6°
Sets 05:57:43 0° 91° (E) 2,533 ? -17.2°
